Terminal Aerodrome Forecast
Issued by NWS Louisville, KY

Home | Current Version | Previous Version | Text Only | Print | Product List | Glossary On
Versions: 1 2 3 4 5 6 7 8 9 10 11 12 13 14 15 16 17
000
FTUS43 KLMK 271400 AAA
TAFBWG
TAF AMD
KBWG 271425Z 2714/2812 19007KT P6SM VCSH OVC025
     FM272100 20005KT 5SM -RA BR BKN022
     FM280200 VRB05KT 4SM -RA BR BKN008=

USA.gov is the U.S. government's official web portal to all federal, state and local government web resources and services.